CTB704 KMIA-EBBR

Flight info

Callsign CTB704
Flight time N/A
Altitude 35000
Route FOLZZ3 SUMRS/M084F350 M204 SOORY NATZ 43N050W/M084F370 NATZ ATSUR/M085F390 DCT LULOX/N0488F390 DCT SIDDI DCT DAWLY DCT GIBSO L620 SAM M140 DVR/N0445F230 L18 VABIK Q70 KOK
Aircraft MD11/H-SDE1E2E3FGHIJ2J3J4J5M1RWXY/LB1D1

Departure

Time N/A
Airport Miami International Airport (KMIA)

Arrival

Time 2026-05-07 08:08
Airport Brussels Airport (EBBR)
Time Latitude Longitude Altitude Speed Heading
2026-05-07 07:02 50.40953 -7.20080 34991 ft 476 kts 86°
2026-05-07 07:02 50.41203 -7.14904 34992 ft 476 kts 86°
2026-05-07 07:02 50.41701 -7.04481 34996 ft 476 kts 86°
2026-05-07 07:03 50.42183 -6.94200 34988 ft 476 kts 86°
2026-05-07 07:03 50.42660 -6.83815 34996 ft 478 kts 86°
2026-05-07 07:04 50.43102 -6.73416 34996 ft 478 kts 87°
2026-05-07 07:04 50.43518 -6.63012 34998 ft 478 kts 87°
2026-05-07 07:05 50.43952 -6.52617 34999 ft 478 kts 87°
2026-05-07 07:05 50.44392 -6.42215 35000 ft 478 kts 87°
2026-05-07 07:06 50.44825 -6.31795 35000 ft 479 kts 87°
2026-05-07 07:06 50.45249 -6.21355 35002 ft 479 kts 87°
2026-05-07 07:07 50.45662 -6.10927 35007 ft 479 kts 87°
2026-05-07 07:07 50.46066 -6.00511 35004 ft 478 kts 87°
2026-05-07 07:08 50.46460 -5.90091 35010 ft 478 kts 87°
2026-05-07 07:08 50.46843 -5.79691 35009 ft 477 kts 87°
2026-05-07 07:09 50.47219 -5.69274 35012 ft 478 kts 87°
2026-05-07 07:09 50.47584 -5.58863 35013 ft 478 kts 87°
2026-05-07 07:10 50.47937 -5.48456 35014 ft 478 kts 88°
2026-05-07 07:10 50.48237 -5.38023 35017 ft 478 kts 88°
2026-05-07 07:11 50.48546 -5.27592 35020 ft 478 kts 88°
2026-05-07 07:11 50.48868 -5.17170 35021 ft 478 kts 88°
2026-05-07 07:12 50.49188 -5.06771 35020 ft 478 kts 88°
2026-05-07 07:12 50.49499 -4.96322 35021 ft 478 kts 88°
2026-05-07 07:13 50.49800 -4.85889 35020 ft 478 kts 88°
2026-05-07 07:13 50.50091 -4.75465 35021 ft 478 kts 88°
2026-05-07 07:14 50.50373 -4.65027 35026 ft 478 kts 88°
2026-05-07 07:14 50.50646 -4.54583 35027 ft 479 kts 88°
2026-05-07 07:15 50.50910 -4.44118 35030 ft 480 kts 88°
2026-05-07 07:15 50.51165 -4.33637 35028 ft 480 kts 88°
2026-05-07 07:16 50.51409 -4.23228 35031 ft 480 kts 88°
2026-05-07 07:16 50.51618 -4.12751 35031 ft 480 kts 89°
2026-05-07 07:17 50.51801 -4.02266 35034 ft 481 kts 89°
2026-05-07 07:17 50.52394 -3.91811 35035 ft 481 kts 81°
2026-05-07 07:18 50.53561 -3.81456 35039 ft 481 kts 79°
2026-05-07 07:18 50.54785 -3.71126 35036 ft 481 kts 79°
2026-05-07 07:19 50.55955 -3.60771 35039 ft 481 kts 80°
2026-05-07 07:19 50.57092 -3.50397 35037 ft 481 kts 80°
2026-05-07 07:20 50.58642 -3.40154 35035 ft 481 kts 74°
2026-05-07 07:20 50.60575 -3.30077 35042 ft 481 kts 73°
2026-05-07 07:21 50.62522 -3.20052 35043 ft 477 kts 73°
2026-05-07 07:21 50.64419 -3.10033 35046 ft 477 kts 73°
2026-05-07 07:22 50.66291 -2.99993 35046 ft 478 kts 74°
2026-05-07 07:22 50.67841 -2.91628 35046 ft 478 kts 74°
2026-05-07 07:23 50.69696 -2.81574 35045 ft 478 kts 74°
2026-05-07 07:23 50.71545 -2.71500 35045 ft 478 kts 74°
2026-05-07 07:24 50.73389 -2.61401 35051 ft 479 kts 74°
2026-05-07 07:24 50.75215 -2.51308 35051 ft 478 kts 74°
2026-05-07 07:25 50.77911 -2.36125 35056 ft 478 kts 74°
2026-05-07 07:26 50.79719 -2.26009 35052 ft 478 kts 74°
2026-05-07 07:26 50.81514 -2.15895 35065 ft 478 kts 74°
2026-05-07 07:27 50.83303 -2.05777 35057 ft 478 kts 74°
2026-05-07 07:27 50.85081 -1.95666 35069 ft 478 kts 75°
2026-05-07 07:28 50.86848 -1.85520 35070 ft 478 kts 75°
2026-05-07 07:28 50.88577 -1.75562 35075 ft 476 kts 75°
2026-05-07 07:29 50.90315 -1.65515 35067 ft 476 kts 75°
2026-05-07 07:29 50.92058 -1.55391 35068 ft 476 kts 75°
2026-05-07 07:30 50.93790 -1.45269 35080 ft 476 kts 75°
2026-05-07 07:30 50.95487 -1.35127 35066 ft 476 kts 77°
2026-05-07 07:31 50.96625 -1.24758 35077 ft 477 kts 82°
2026-05-07 07:31 50.97477 -1.14314 35068 ft 477 kts 83°
2026-05-07 07:32 50.98332 -1.03890 35068 ft 477 kts 82°
2026-05-07 07:32 50.99216 -0.93466 35073 ft 477 kts 82°
2026-05-07 07:33 51.00103 -0.83041 35071 ft 477 kts 82°
2026-05-07 07:33 51.00983 -0.72604 35076 ft 477 kts 82°
2026-05-07 07:34 51.01852 -0.62166 35073 ft 477 kts 83°
2026-05-07 07:34 51.02710 -0.51738 35077 ft 477 kts 83°
2026-05-07 07:35 51.03559 -0.41293 35077 ft 477 kts 83°
2026-05-07 07:35 51.04400 -0.30839 35069 ft 477 kts 83°
2026-05-07 07:36 51.05232 -0.20373 35073 ft 477 kts 83°
2026-05-07 07:36 51.06053 -0.09920 35072 ft 477 kts 83°
2026-05-07 07:37 51.06845 0.00557 35023 ft 477 kts 83°
2026-05-07 07:37 51.07603 0.11050 34996 ft 478 kts 83°
2026-05-07 07:38 51.08381 0.21554 34953 ft 479 kts 83°
2026-05-07 07:38 51.09170 0.32074 34927 ft 478 kts 83°
2026-05-07 07:39 51.09950 0.42576 34909 ft 478 kts 83°
2026-05-07 07:39 51.10722 0.53098 34919 ft 479 kts 83°
2026-05-07 07:40 51.11467 0.63646 34938 ft 480 kts 84°
2026-05-07 07:40 51.12202 0.74214 34980 ft 480 kts 84°
2026-05-07 07:41 51.12932 0.84700 35017 ft 480 kts 84°
2026-05-07 07:41 51.13667 0.95326 35067 ft 480 kts 84°
2026-05-07 07:42 51.14388 1.05897 35067 ft 481 kts 84°
2026-05-07 07:42 51.15099 1.16457 35064 ft 481 kts 84°
2026-05-07 07:43 51.15797 1.26980 35064 ft 481 kts 84°
2026-05-07 07:43 51.16610 1.37614 35065 ft 481 kts 81°
2026-05-07 07:44 51.17895 1.48001 35064 ft 481 kts 78°
2026-05-07 07:44 51.19322 1.58424 35062 ft 482 kts 78°
2026-05-07 07:44 51.20030 1.63661 34869 ft 483 kts 78°
2026-05-07 07:45 51.20725 1.68884 34758 ft 480 kts 78°
2026-05-07 07:45 51.22092 1.79340 34546 ft 483 kts 78°
2026-05-07 07:45 51.22769 1.84568 34427 ft 481 kts 78°
2026-05-07 07:46 51.23442 1.89792 34363 ft 481 kts 78°
2026-05-07 07:46 51.24114 1.95027 34206 ft 483 kts 78°
2026-05-07 07:46 51.24629 2.00331 33725 ft 483 kts 86°
2026-05-07 07:46 51.24694 2.05678 33202 ft 482 kts 92°
2026-05-07 07:47 51.24481 2.11017 32660 ft 483 kts 95°
2026-05-07 07:47 51.24160 2.16361 32124 ft 484 kts 96°
2026-05-07 07:47 51.23820 2.21704 31597 ft 486 kts 96°
2026-05-07 07:47 51.23498 2.27077 31063 ft 487 kts 96°
2026-05-07 07:48 51.23177 2.32464 30500 ft 488 kts 97°
2026-05-07 07:48 51.22601 2.37791 29927 ft 488 kts 105°
2026-05-07 07:48 51.21496 2.42875 29280 ft 482 kts 116°
2026-05-07 07:48 51.19832 2.47469 28704 ft 476 kts 127°
2026-05-07 07:49 51.17744 2.51521 28140 ft 471 kts 133°
2026-05-07 07:49 51.15505 2.55308 27587 ft 468 kts 135°
2026-05-07 07:49 51.13269 2.59020 27030 ft 464 kts 134°
2026-05-07 07:49 51.11092 2.62786 26490 ft 460 kts 131°
2026-05-07 07:50 51.09305 2.66993 25896 ft 459 kts 117°
2026-05-07 07:50 51.08181 2.71714 25297 ft 455 kts 104°
2026-05-07 07:50 51.07573 2.76635 24720 ft 452 kts 99°
2026-05-07 07:50 51.07150 2.81568 24131 ft 448 kts 97°
2026-05-07 07:51 51.06741 2.86464 23538 ft 445 kts 98°
2026-05-07 07:51 51.06285 2.91312 22888 ft 441 kts 99°
2026-05-07 07:51 51.05781 2.96096 22289 ft 437 kts 100°
2026-05-07 07:51 51.05249 3.00762 21719 ft 433 kts 101°
2026-05-07 07:52 51.04693 3.05439 21159 ft 429 kts 101°
2026-05-07 07:52 51.04130 3.10065 20587 ft 425 kts 101°
2026-05-07 07:52 51.03566 3.14655 20050 ft 421 kts 101°
2026-05-07 07:52 51.02998 3.19263 19495 ft 417 kts 101°
2026-05-07 07:53 51.02448 3.23710 18966 ft 414 kts 101°
2026-05-07 07:53 51.01895 3.28172 18423 ft 410 kts 101°
2026-05-07 07:53 51.01346 3.32594 17838 ft 407 kts 101°
2026-05-07 07:53 51.00798 3.36993 17280 ft 405 kts 101°
2026-05-07 07:54 51.00252 3.41367 16745 ft 402 kts 101°
2026-05-07 07:54 50.99710 3.45697 16224 ft 399 kts 101°
2026-05-07 07:54 50.99170 3.49998 15702 ft 396 kts 101°
2026-05-07 07:54 50.98632 3.54268 15190 ft 393 kts 102°
2026-05-07 07:55 50.98096 3.58506 14692 ft 390 kts 102°
2026-05-07 07:55 50.97562 3.62715 14186 ft 388 kts 102°
2026-05-07 07:55 50.97031 3.66893 13670 ft 385 kts 102°
2026-05-07 07:55 50.96502 3.71043 13137 ft 382 kts 102°
2026-05-07 07:56 50.95976 3.75155 12636 ft 379 kts 102°
2026-05-07 07:56 50.95453 3.79233 12143 ft 376 kts 102°
2026-05-07 07:56 50.94933 3.83278 11649 ft 373 kts 102°
2026-05-07 07:56 50.94414 3.87296 11235 ft 370 kts 102°
2026-05-07 07:57 50.93900 3.91265 11046 ft 363 kts 102°
2026-05-07 07:57 50.93412 3.95025 10941 ft 336 kts 102°
2026-05-07 07:57 50.92953 3.98505 10828 ft 310 kts 102°
2026-05-07 07:57 50.92511 4.01734 10706 ft 292 kts 102°
2026-05-07 07:58 50.92087 4.04844 10586 ft 293 kts 102°
2026-05-07 07:58 50.91660 4.07996 10315 ft 292 kts 103°
2026-05-07 07:58 50.91070 4.11046 9823 ft 289 kts 116°
2026-05-07 07:58 50.89898 4.13563 9349 ft 282 kts 141°
2026-05-07 07:59 50.88207 4.15041 8932 ft 278 kts 161°
2026-05-07 07:59 50.86348 4.15904 8521 ft 278 kts 167°
2026-05-07 07:59 50.84477 4.16625 8101 ft 275 kts 167°
2026-05-07 07:59 50.82620 4.17322 7688 ft 273 kts 167°
2026-05-07 08:00 50.80781 4.18019 7290 ft 271 kts 167°
2026-05-07 08:00 50.78955 4.18718 6911 ft 269 kts 166°
2026-05-07 08:00 50.77145 4.19418 6551 ft 267 kts 166°
2026-05-07 08:00 50.75343 4.20118 6176 ft 265 kts 166°
2026-05-07 08:01 50.73591 4.20801 5987 ft 252 kts 165°
2026-05-07 08:01 50.71943 4.21448 5870 ft 238 kts 164°
2026-05-07 08:01 50.70420 4.22478 5549 ft 240 kts 142°
2026-05-07 08:01 50.69408 4.24474 5182 ft 229 kts 109°
2026-05-07 08:02 50.69250 4.26935 4846 ft 228 kts 82°
2026-05-07 08:02 50.69547 4.29388 4489 ft 226 kts 76°
2026-05-07 08:02 50.69906 4.31760 4177 ft 216 kts 75°
2026-05-07 08:02 50.70244 4.33944 3858 ft 200 kts 75°
2026-05-07 08:03 50.70581 4.36110 3590 ft 201 kts 75°
2026-05-07 08:03 50.70916 4.38255 3303 ft 201 kts 75°
2026-05-07 08:03 50.71386 4.40308 3014 ft 199 kts 59°
2026-05-07 08:03 50.72313 4.41848 2745 ft 198 kts 31°
2026-05-07 08:04 50.73586 4.42670 2486 ft 199 kts 20°
2026-05-07 08:04 50.74906 4.43379 2231 ft 197 kts 19°
2026-05-07 08:04 50.76193 4.44022 2050 ft 193 kts 18°
2026-05-07 08:04 50.77457 4.44561 1996 ft 188 kts 15°
2026-05-07 08:05 50.78721 4.45052 1999 ft 187 kts 15°
2026-05-07 08:05 50.79984 4.45555 1990 ft 187 kts 16°
2026-05-07 08:05 50.81251 4.46068 1776 ft 187 kts 16°
2026-05-07 08:05 50.82503 4.46580 1495 ft 183 kts 16°
2026-05-07 08:06 50.83671 4.47057 1241 ft 160 kts 16°
2026-05-07 08:06 50.84685 4.47478 965 ft 146 kts 16°
2026-05-07 08:06 50.85763 4.47927 819 ft 159 kts 16°
2026-05-07 08:06 50.86773 4.48343 618 ft 148 kts 14°
2026-05-07 08:07 50.87758 4.48751 424 ft 151 kts 14°
2026-05-07 08:07 50.88775 4.49165 230 ft 144 kts 15°
2026-05-07 08:07 50.89607 4.49512 164 ft 102 kts 15°
2026-05-07 08:07 50.90162 4.49739 138 ft 64 kts 14°
2026-05-07 08:08 50.90477 4.49869 126 ft 34 kts 14°
2026-05-07 08:08 50.90680 4.49928 128 ft 29 kts
2026-05-07 08:08 50.90825 4.49897 126 ft 12 kts 343°
2026-05-07 08:08 50.90841 4.49882 128 ft 0 kts 324°
2026-05-07 08:09 50.90842 4.49880 127 ft 0 kts 324°
2026-05-07 08:10 50.90844 4.49878 127 ft 0 kts 324°
2026-05-07 08:10 50.90845 4.49877 128 ft 0 kts 324°
2026-05-07 08:11 50.90853 4.49861 125 ft 8 kts 306°
2026-05-07 08:11 50.90896 4.49702 128 ft 13 kts 275°
2026-05-07 08:11 50.90869 4.49576 127 ft 13 kts 245°
2026-05-07 08:12 50.90827 4.49430 126 ft 16 kts 245°
2026-05-07 08:12 50.90777 4.49259 126 ft 18 kts 245°
2026-05-07 08:12 50.90721 4.49064 124 ft 20 kts 247°
2026-05-07 08:12 50.90661 4.48861 124 ft 20 kts 245°
2026-05-07 08:13 50.90603 4.48658 124 ft 20 kts 245°
2026-05-07 08:13 50.90547 4.48463 125 ft 19 kts 245°
2026-05-07 08:13 50.90492 4.48275 124 ft 19 kts 245°
2026-05-07 08:13 50.90438 4.48088 126 ft 19 kts 245°
2026-05-07 08:14 50.90384 4.47901 124 ft 19 kts 245°
2026-05-07 08:14 50.90331 4.47716 125 ft 18 kts 245°
2026-05-07 08:14 50.90280 4.47540 125 ft 17 kts 246°
2026-05-07 08:14 50.90235 4.47384 126 ft 14 kts 245°
2026-05-07 08:15 50.90213 4.47308 122 ft 1 kts 245°
2026-05-07 08:15 50.90210 4.47297 122 ft 2 kts 245°
2026-05-07 08:15 50.90195 4.47244 126 ft 9 kts 245°
2026-05-07 08:15 50.90161 4.47128 131 ft 12 kts 245°
2026-05-07 08:16 50.90125 4.47003 134 ft 12 kts 245°
2026-05-07 08:16 50.90091 4.46884 136 ft 12 kts 246°
2026-05-07 08:16 50.90069 4.46812 137 ft 12 kts 245°
2026-05-07 08:16 50.90062 4.46786 137 ft 12 kts 246°
2026-05-07 08:17 50.90052 4.46752 138 ft 12 kts 246°
2026-05-07 08:17 50.90037 4.46697 138 ft 12 kts 246°
2026-05-07 08:17 50.90008 4.46596 140 ft 6 kts 242°
2026-05-07 08:17 50.89966 4.46563 140 ft 8 kts 178°
2026-05-07 08:18 50.89945 4.46593 140 ft 14 kts 118°
2026-05-07 08:18 50.89986 4.46791 138 ft 21 kts 64°
2026-05-07 08:18 50.90048 4.47006 132 ft 22 kts 65°
2026-05-07 08:18 50.90113 4.47231 128 ft 23 kts 65°
2026-05-07 08:19 50.90180 4.47463 126 ft 24 kts 65°
2026-05-07 08:19 50.90248 4.47700 125 ft 24 kts 65°
2026-05-07 08:19 50.90315 4.47930 123 ft 22 kts 65°
2026-05-07 08:19 50.90378 4.48152 126 ft 22 kts 66°
2026-05-07 08:20 50.90440 4.48363 126 ft 21 kts 65°
2026-05-07 08:20 50.90499 4.48568 124 ft 20 kts 66°
2026-05-07 08:20 50.90557 4.48768 125 ft 20 kts 65°
2026-05-07 08:20 50.90613 4.48962 123 ft 16 kts 66°
2026-05-07 08:21 50.90643 4.49093 127 ft 8 kts 91°
2026-05-07 08:21 50.90614 4.49150 124 ft 6 kts 145°
2026-05-07 08:21 50.90576 4.49184 126 ft 12 kts 153°
2026-05-07 08:21 50.90464 4.49267 125 ft 16 kts 155°
2026-05-07 08:22 50.90385 4.49325 126 ft 10 kts 154°
2026-05-07 08:22 50.90338 4.49321 126 ft 5 kts 209°
2026-05-07 08:22 50.90313 4.49270 132 ft 10 kts 240°
2026-05-07 08:22 50.90275 4.49143 132 ft 10 kts 246°
2026-05-07 08:23 50.90243 4.49032 132 ft 12 kts 246°
2026-05-07 08:23 50.90209 4.48912 129 ft 12 kts 245°
2026-05-07 08:23 50.90181 4.48816 127 ft 6 kts 243°
2026-05-07 08:23 50.90165 4.48796 133 ft 1 kts 205°
2026-05-07 08:24 50.90159 4.48796 127 ft 3 kts 188°
2026-05-07 08:24 50.90142 4.48801 136 ft 0 kts 167°
2026-05-07 08:24 50.90132 4.48806 132 ft 0 kts 161°
2026-05-07 08:25 50.90122 4.48814 136 ft 0 kts 155°
2026-05-07 08:25 50.90121 4.48815 136 ft 0 kts 155°
2026-05-07 08:25 50.90111 4.48822 137 ft 0 kts 156°
2026-05-07 08:26 50.90104 4.48827 138 ft 0 kts 155°